N9WFD Weather Reports


Display with metric or nautical units.
time (UTC)temp
F
wind
direction
speed
MPH
gust
MPH
rain 1hr
in
rain 24hr
in
rain mn
in
humidity
%
barometer
mb
20260904020021 76 171 0.0 3.0 0.00 0.02 0.01 85 1011.8
20260904014521 77 200 2.0 5.0 0.00 0.02 0.01 83 1011.9
20260904013021 78 185 0.0 3.0 0.00 0.02 0.01 81 1011.6
20260904011518 79 183 2.0 6.0 0.00 0.02 0.01 78 1011.2
20260904010017 80 191 2.0 4.0 0.00 0.02 0.01 75 1011.0
20260904004516 81 166 0.0 3.0 0.00 0.02 0.01 74 1011.1
20260904003016 81 171 0.0 4.0 0.00 0.02 0.01 73 1010.6
20260904001515 82 210 2.0 6.0 0.00 0.02 0.01 70 1010.3
20260904000012 83 221 0.0 7.0 0.00 0.02 0.01 70 1010.4
20260903234512 84 207 4.0 13.0 0.00 0.02 0.01 68 1010.4
20260903233011 86 156 2.0 8.0 0.00 0.02 0.01 71 1010.3
20260903231544 86 233 3.0 7.0 0.00 0.02 0.01 71 1010.4
20260903230047 87 249 4.0 10.0 0.00 0.02 0.01 70 1010.4
20260903224516 87 257 3.0 8.0 0.00 0.02 0.01 70 1010.4
20260903223007 87 308 1.0 6.0 0.00 0.02 0.01 70 1010.5
20260903221503 87 296 3.0 7.0 0.00 0.02 0.01 70 1010.7
20260903220107 86 323 3.0 9.0 0.00 0.02 0.01 70 1010.8
20260903214610 86 317 2.0 7.0 0.00 0.02 0.01 70 1010.9
20260903213058 86 285 3.0 6.0 0.00 0.02 0.01 69 1010.9
20260903211531 85 320 4.0 9.0 0.01 0.02 0.01 70 1011.0
20260903210025 85 302 1.0 7.0 0.01 0.02 0.01 69 1011.1
20260903204559 85 268 3.0 8.0 0.01 0.02 0.01 71 1011.2
20260903203051 85 282 0.0 4.0 0.01 0.02 0.01 72 1011.3
20260903201558 85 240 2.0 6.0 0.00 0.01 0.00 71 1011.4
20260903200057 85 219 2.0 5.0 0.00 0.01 0.00 68 1011.5
20260903194547 85 185 3.0 7.0 0.00 0.01 0.00 70 1011.8
20260903193044 84 284 1.0 3.0 0.00 0.01 0.00 72 1012.0
20260903191541 83 285 2.0 6.0 0.00 0.01 0.00 73 1011.8
20260903190040 81 256 3.0 8.0 0.00 0.01 0.00 76 1011.7
20260903184540 81 229 5.0 10.0 0.00 0.01 0.00 77 1011.8
20260903183038 80 248 1.0 7.0 0.00 0.01 0.00 79 1011.9
20260903181535 79 213 1.0 7.0 0.00 0.01 0.00 79 1012.1
20260903180040 78 148 0.0 6.0 0.00 0.01 0.00 82 1012.4
20260903174535 77 194 3.0 7.0 0.00 0.01 0.00 85 1012.6
20260903173033 76 185 3.0 10.0 0.00 0.01 0.00 86 1012.9
20260903171529 74 149 1.0 6.0 0.00 0.01 0.00 89 1013.0
20260903170030 73 171 4.0 11.0 0.00 0.01 0.00 89 1013.3
20260903164527 74 123 5.0 10.0 0.00 0.01 0.00 89 1013.8
20260903163023 74 77 2.0 5.0 0.00 0.01 0.00 89 1014.1
20260903161550 75 50 3.0 9.0 0.00 0.01 0.00 87 1013.7
20260903160047 76 59 3.0 13.0 0.00 0.01 0.00 84 1013.5
20260903154546 80 89 7.0 18.0 0.00 0.01 0.00 80 1013.4
20260903153045 81 47 3.0 8.0 0.00 0.01 0.00 78 1013.3
20260903151534 82 64 4.0 10.0 0.00 0.01 0.00 77 1012.7
20260903150032 83 71 5.0 16.0 0.00 0.01 0.00 75 1013.0
20260903144529 84 37 2.0 3.0 0.00 0.01 0.00 72 1011.8
20260903143034 84 12 2.0 5.0 0.00 0.01 0.00 72 1011.8
20260903141535 83 331 1.0 4.0 0.00 0.01 0.00 74 1011.8
20260903140023 83 330 1.0 5.0 0.00 0.01 0.00 75 1011.7
20260903134520 83 321 3.0 7.0 0.00 0.01 0.00 76 1011.4
20260903133047 82 317 3.0 6.0 0.00 0.01 0.01 78 1011.4
20260903131546 80 304 4.0 7.0 0.00 0.01 0.01 80 1011.3
20260903130043 79 327 3.0 7.0 0.00 0.01 0.01 82 1011.3
20260903124543 78 318 2.0 6.0 0.00 0.01 0.01 84 1011.4
20260903123042 77 316 3.0 6.0 0.00 0.01 0.01 85 1011.5
20260903121541 77 304 3.0 7.0 0.00 0.01 0.01 86 1011.5
20260903120047 77 307 2.0 5.0 0.00 0.01 0.01 87 1011.5
20260903114540 76 312 2.0 6.0 0.00 0.01 0.01 87 1011.4
20260903113038 77 314 1.0 4.0 0.00 0.01 0.01 87 1011.5
20260903111548 77 318 2.0 7.0 0.00 0.01 0.01 87 1011.4
20260903110005 77 314 1.0 5.0 0.00 0.01 0.01 87 1011.4
20260903104502 77 332 3.0 5.0 0.00 0.01 0.01 87 1011.5
20260903103105 78 304 1.0 3.0 0.00 0.02 0.01 86 1011.3
20260903101559 78 310 1.0 4.0 0.00 0.02 0.01 87 1011.3
20260903100100 77 302 1.0 4.0 0.00 0.02 0.01 88 1011.4
20260903094602 77 75 1.0 3.0 0.00 0.02 0.01 88 1011.3
20260903093103 77 78 1.0 3.0 0.00 0.02 0.01 88 1011.3
20260903091555 77 79 0.0 0.0 0.00 0.02 0.01 88 1011.3
20260903090054 78 79 0.0 2.0 0.00 0.02 0.01 88 1011.3
20260903084557 78 79 0.0 0.0 0.00 0.02 0.01 87 1011.4
20260903083056 78 79 2.0 4.0 0.00 0.02 0.01 87 1011.5
20260903081611 78 4 0.0 2.0 0.00 0.02 0.01 87 1011.4
20260903080048 79 3 1.0 3.0 0.00 0.02 0.01 87 1011.5
20260903074553 79 316 0.0 2.0 0.00 0.02 0.01 86 1011.2
20260903073044 79 316 1.0 3.0 0.00 0.02 0.01 86 1011.1
20260903071551 79 316 0.0 2.0 0.00 0.02 0.01 86 1011.1
20260903070043 79 316 0.0 1.0 0.00 0.02 0.01 86 1011.2
20260903064548 80 316 0.0 3.0 0.00 0.02 0.01 86 1011.2
20260903063045 80 316 0.0 2.0 0.00 0.02 0.01 86 1011.2
20260903061540 80 316 0.0 2.0 0.00 0.02 0.01 86 1011.3
20260903060042 80 316 1.0 3.0 0.00 0.02 0.01 86 1011.4
20260903054537 80 316 1.0 3.0 0.00 0.02 0.01 86 1011.4
20260903053037 80 316 1.0 3.0 0.00 0.02 0.01 87 1011.3
20260903051534 79 316 2.0 3.0 0.00 0.02 0.01 87 1011.3
20260903050042 79 316 0.0 2.0 0.00 0.02 0.01 87 1011.3
20260903044534 80 316 2.0 4.0 0.00 0.02 0.01 86 1011.1
20260903043029 80 337 0.0 1.0 0.00 0.02 0.01 85 1011.1
20260903041530 80 339 2.0 3.0 0.00 0.02 0.01 85 1011.0
20260903040028 81 339 1.0 3.0 0.00 0.02 0.01 84 1011.0
20260903034533 81 340 0.0 3.0 0.00 0.02 0.01 84 1011.1
20260903033101 81 340 1.0 2.0 0.00 0.02 0.01 84 1011.1
20260903031556 81 340 0.0 1.0 0.00 0.02 0.01 83 1011.1
20260903030109 82 341 0.0 2.0 0.00 0.02 0.01 82 1011.1
20260903024553 82 340 0.0 3.0 0.01 0.02 0.01 81 1011.1
20260903023052 82 347 0.0 2.0 0.01 0.02 0.01 81 1011.0
20260903021552 83 347 1.0 4.0 0.01 0.02 0.01 79 1010.9